Location: Ferchesar
(52.6477°N, 12.4298°E)
Time: 09:00:21
(UTC+01:00)

Transit 2A - Pass Details

Date: 12 December 2021
Orbit: 591 x 966 km, 66.7° (Epoch: 26 January)

Event Time Altitude Azimuth Distance (km) Brightness Sun altitude
Exits shadow 07:14:13 - 315° (NW) 2,850 8.3 -8.2°
Reaches altitude 10° 07:14:36 10° 314° (NW) 2,716 8.2 -8.2°
Maximum altitude 07:20:43 49° 242° (WSW) 1,212 6.8 -7.4°
Drops below altitude 10° 07:26:34 10° 169° (S) 2,597 9.4 -6.6°
Sets 07:29:04 0° 164° (SSE) 3,490 10.2 -6.3°
